FW6665 Weather Reports


time (UTC)temp
C
wind
direction
speed
KPH
gust
KPH
rain 1hr
cm
rain 24hr
cm
rain mn
cm
humidity
%
barometer
mb
20260902060705 16 226 0.0 3.2 0.00 0.00 0.00 77 1017.0
20260902060205 15 226 0.0 3.2 0.00 0.00 0.00 77 1017.1
20260902055705 15 226 0.0 3.2 0.00 0.00 0.00 77 1017.0
20260902055204 15 226 0.0 1.6 0.00 0.00 0.00 77 1017.0
20260902054705 15 226 0.0 1.6 0.00 0.00 0.00 77 1016.9
20260902054206 15 226 0.0 1.6 0.00 0.00 0.00 77 1016.9
20260902053704 15 226 0.0 1.6 0.00 0.00 0.00 77 1016.9
20260902053204 15 226 0.0 1.6 0.00 0.00 0.00 77 1016.8
20260902052704 15 226 0.0 1.6 0.00 0.00 0.00 77 1016.9
20260902052210 15 226 0.0 1.6 0.00 0.00 0.00 78 1016.9
20260902051704 15 226 0.0 1.6 0.00 0.00 0.00 78 1016.9
20260902051204 15 226 0.0 1.6 0.00 0.00 0.00 78 1016.8
20260902050704 16 226 0.0 1.6 0.00 0.00 0.00 78 1016.9
20260902045704 16 226 0.0 1.6 0.00 0.00 0.00 78 1016.9
20260902045205 16 226 0.0 1.6 0.00 0.00 0.00 78 1016.9
20260902044705 16 226 0.0 1.6 0.00 0.00 0.00 78 1016.9
20260902044204 16 226 0.0 1.6 0.00 0.00 0.00 78 1016.9
20260902043704 16 226 0.0 1.6 0.00 0.00 0.00 78 1016.9
20260902043203 16 226 0.0 1.6 0.00 0.00 0.00 78 1016.8
20260902042705 16 226 0.0 1.6 0.00 0.00 0.00 78 1016.9
20260902042206 16 226 0.0 1.6 0.00 0.00 0.00 78 1017.0
20260902041705 16 226 0.0 1.6 0.00 0.00 0.00 78 1017.0
20260902041205 16 226 0.0 1.6 0.00 0.00 0.00 78 1017.0
20260902040704 16 226 0.0 0.0 0.00 0.00 0.00 78 1016.9
20260902040204 16 226 0.0 0.0 0.00 0.00 0.00 78 1017.0
20260902035205 16 226 0.0 1.6 0.00 0.00 0.00 77 1017.0
20260902034705 16 226 0.0 1.6 0.00 0.00 0.00 77 1017.1
20260902034204 16 226 0.0 3.2 0.00 0.00 0.00 77 1017.1
20260902033704 16 226 0.0 3.2 0.00 0.00 0.00 77 1017.1
20260902032704 16 226 0.0 3.2 0.00 0.00 0.00 77 1017.2
20260902032204 16 226 0.0 3.2 0.00 0.00 0.00 77 1017.1
20260902031705 16 226 0.0 1.6 0.00 0.00 0.00 77 1017.1
20260902031204 16 226 0.0 3.2 0.00 0.00 0.00 77 1017.1
20260902030709 16 226 0.0 3.2 0.00 0.00 0.00 77 1017.0
20260902030206 16 226 0.0 6.4 0.00 0.00 0.00 77 1017.0
20260902025705 16 226 0.0 6.4 0.00 0.00 0.00 77 1017.0
20260902025205 16 226 1.6 3.2 0.00 0.00 0.00 77 1017.1
20260902024703 16 227 1.6 3.2 0.00 0.00 0.00 77 1017.1
20260902023704 16 227 0.0 3.2 0.00 0.00 0.00 77 1017.0
20260902023206 16 227 0.0 3.2 0.00 0.00 0.00 77 1017.0
20260902022704 16 227 0.0 3.2 0.00 0.00 0.00 77 1017.0
20260902022204 16 227 0.0 4.8 0.00 0.00 0.00 77 1017.0
20260902021232 16 227 0.0 4.8 0.00 0.00 0.00 77 1017.0
20260902015704 16 227 0.0 1.6 0.00 0.00 0.00 76 1017.1
20260902014704 16 227 0.0 1.6 0.00 0.00 0.00 76 1017.2
20260902014204 17 227 0.0 1.6 0.00 0.00 0.00 76 1017.3
20260902013705 17 227 0.0 1.6 0.00 0.00 0.00 76 1017.3
20260902013204 17 227 0.0 1.6 0.00 0.00 0.00 76 1017.3
20260902012714 17 227 0.0 3.2 0.00 0.00 0.00 76 1017.3
20260902012204 17 227 0.0 3.2 0.00 0.00 0.00 76 1017.3
20260902011704 17 227 0.0 3.2 0.00 0.00 0.00 75 1017.2
20260902011204 17 227 0.0 3.2 0.00 0.00 0.00 75 1017.3
20260902010704 17 233 0.0 3.2 0.00 0.00 0.00 75 1017.4
20260902010204 17 233 1.6 4.8 0.00 0.00 0.00 75 1017.4
20260902005704 17 233 1.6 4.8 0.00 0.00 0.00 75 1017.4
20260902005204 17 233 0.0 4.8 0.00 0.00 0.00 75 1017.4
20260902004704 17 234 0.0 6.4 0.00 0.00 0.00 75 1017.3
20260902004206 17 234 1.6 6.4 0.00 0.00 0.00 75 1017.4
20260902003703 17 234 1.6 6.4 0.00 0.00 0.00 75 1017.4
20260902003204 17 234 0.0 4.8 0.00 0.00 0.00 75 1017.4
20260902002705 17 243 1.6 4.8 0.00 0.00 0.00 74 1017.5
20260902002204 17 243 1.6 4.8 0.00 0.00 0.00 74 1017.4
20260902001705 17 243 1.6 4.8 0.00 0.00 0.00 74 1017.5
20260902001206 17 240 1.6 4.8 0.00 0.00 0.00 74 1017.4
20260902000704 17 241 1.6 4.8 0.00 0.00 0.00 74 1017.6
20260902000204 17 241 1.6 4.8 0.00 0.00 0.00 74 1017.6
20260901235705 17 241 1.6 9.7 0.00 0.00 0.00 74 1017.6
20260901235204 17 243 1.6 11.3 0.00 0.00 0.00 73 1017.6
20260901234704 17 240 1.6 11.3 0.00 0.00 0.00 73 1017.6
20260901234204 17 254 3.2 11.3 0.00 0.00 0.00 73 1017.6
20260901233704 17 196 3.2 6.4 0.00 0.00 0.00 73 1017.7
20260901233203 17 195 0.0 6.4 0.00 0.00 0.00 73 1017.6
20260901232708 17 195 3.2 6.4 0.00 0.00 0.00 73 1017.6
20260901232205 17 193 1.6 6.4 0.00 0.00 0.00 73 1017.6
20260901231705 17 193 1.6 6.4 0.00 0.00 0.00 73 1017.6
20260901231204 17 192 3.2 4.8 0.00 0.00 0.00 73 1017.6
20260901230709 17 189 1.6 4.8 0.00 0.00 0.00 73 1017.6
20260901230203 17 189 0.0 4.8 0.00 0.00 0.00 73 1017.6
20260901225709 17 189 1.6 3.2 0.00 0.00 0.00 72 1017.7
20260901224705 17 189 1.6 3.2 0.00 0.00 0.00 72 1017.7
20260901224204 17 189 1.6 3.2 0.00 0.00 0.00 72 1017.7
20260901223704 17 189 1.6 3.2 0.00 0.00 0.00 72 1017.6
20260901223205 17 189 0.0 3.2 0.00 0.00 0.00 72 1017.7
20260901222705 17 189 1.6 4.8 0.00 0.00 0.00 72 1017.7
20260901221730 17 189 1.6 4.8 0.00 0.00 0.00 72 1017.7
20260901220704 17 188 0.0 4.8 0.00 0.00 0.00 72 1017.8
20260901215709 17 189 1.6 4.8 0.00 0.00 0.00 72 1017.9
20260901215204 17 188 0.0 4.8 0.00 0.00 0.00 72 1017.9
20260901214704 17 188 1.6 4.8 0.00 0.00 0.00 71 1018.0
20260901214211 17 186 0.0 4.8 0.00 0.00 0.00 71 1017.9
20260901213704 17 186 0.0 3.2 0.00 0.00 0.00 71 1017.8
20260901213204 17 186 0.0 4.8 0.00 0.00 0.00 71 1017.7
20260901212704 17 186 0.0 4.8 0.00 0.00 0.00 71 1017.7
20260901212209 17 186 1.6 3.2 0.00 0.00 0.00 71 1017.9
20260901211704 17 186 0.0 3.2 0.00 0.00 0.00 70 1017.8
20260901211204 18 186 0.0 8.0 0.00 0.00 0.00 70 1017.7
20260901210705 18 186 0.0 8.0 0.00 0.00 0.00 70 1017.7
20260901205705 18 186 1.6 6.4 0.00 0.00 0.00 70 1017.7
20260901205204 18 176 0.0 6.4 0.00 0.00 0.00 69 1017.7
20260901204704 18 176 1.6 6.4 0.00 0.00 0.00 69 1017.7
20260901204204 18 173 1.6 6.4 0.00 0.00 0.00 69 1017.8
20260901203704 18 172 0.0 8.0 0.00 0.00 0.00 69 1017.7
20260901203204 18 172 1.6 8.0 0.00 0.00 0.00 68 1017.6
20260901201704 18 207 1.6 6.4 0.00 0.00 0.00 67 1017.6
20260901201204 18 207 1.6 9.7 0.00 0.00 0.00 67 1017.5
20260901200704 18 213 1.6 9.7 0.00 0.00 0.00 67 1017.5
20260901200204 18 227 0.0 11.3 0.00 0.00 0.00 67 1017.6
20260901195704 18 172 1.6 11.3 0.00 0.00 0.00 67 1017.5
20260901195204 18 171 3.2 11.3 0.00 0.00 0.00 66 1017.6
20260901194705 19 196 1.6 9.7 0.00 0.00 0.00 66 1017.6
20260901194204 19 207 1.6 11.3 0.00 0.00 0.00 66 1017.5
20260901193704 19 185 3.2 11.3 0.00 0.00 0.00 66 1017.4
20260901193204 19 221 3.2 11.3 0.00 0.00 0.00 65 1017.4
20260901192704 19 182 3.2 11.3 0.00 0.00 0.00 65 1017.4
20260901191706 20 179 1.6 9.7 0.00 0.00 0.00 64 1017.3
20260901191204 20 185 0.0 9.7 0.00 0.00 0.00 64 1017.2
20260901190703 20 175 3.2 6.4 0.00 0.00 0.00 64 1017.2
20260901190204 20 231 1.6 9.7 0.00 0.00 0.00 63 1017.1
20260901185204 20 250 3.2 14.5 0.00 0.00 0.00 62 1017.0
20260901184204 20 200 1.6 11.3 0.00 0.00 0.00 60 1017.0
20260901183705 20 206 3.2 9.7 0.00 0.00 0.00 58 1017.1
20260901182704 21 200 1.6 16.1 0.00 0.00 0.00 55 1017.1
20260901182204 21 233 3.2 17.7 0.00 0.00 0.00 54 1017.0
20260901181704 21 183 3.2 17.7 0.00 0.00 0.00 52 1017.0
20260901181205 21 244 6.4 17.7 0.00 0.00 0.00 51 1016.9
20260901180704 21 247 3.2 8.0 0.00 0.00 0.00 49 1016.9
20260901175704 21 186 1.6 8.0 0.00 0.00 0.00 47 1016.8
20260901175205 22 161 3.2 9.7 0.00 0.00 0.00 46 1016.7
20260901174204 22 202 1.6 16.1 0.00 0.00 0.00 46 1016.9
20260901173739 22 254 4.8 16.1 0.00 0.00 0.00 45 1016.6
20260901173204 22 240 4.8 9.7 0.00 0.00 0.00 45 1016.6
20260901172705 22 202 3.2 11.3 0.00 0.00 0.00 45 1016.7
20260901172204 22 243 3.2 11.3 0.00 0.00 0.00 45 1016.7
20260901171705 22 231 6.4 11.3 0.00 0.00 0.00 45 1016.8
20260901171204 22 240 3.2 11.3 0.00 0.00 0.00 46 1016.8
20260901170704 22 202 1.6 8.0 0.00 0.00 0.00 46 1016.7
20260901170204 22 200 1.6 9.7 0.00 0.00 0.00 46 1016.6
20260901165714 22 193 3.2 9.7 0.00 0.00 0.00 46 1016.7
20260901165205 22 264 3.2 9.7 0.00 0.00 0.00 47 1016.8
20260901164704 22 234 1.6 9.7 0.00 0.00 0.00 48 1016.8
20260901164204 22 231 3.2 9.7 0.00 0.00 0.00 47 1016.7
20260901163706 22 243 3.2 11.3 0.00 0.00 0.00 48 1016.6
20260901163205 22 241 4.8 11.3 0.00 0.00 0.00 47 1016.6
20260901162704 22 269 4.8 16.1 0.00 0.00 0.00 47 1016.6
20260901162204 22 234 4.8 16.1 0.00 0.00 0.00 46 1016.5
20260901161704 22 237 6.4 14.5 0.00 0.00 0.00 46 1016.8
20260901160704 22 251 6.4 11.3 0.00 0.00 0.00 45 1016.9
20260901160207 22 241 4.8 11.3 0.00 0.00 0.00 46 1016.9
20260901155205 22 268 4.8 9.7 0.00 0.00 0.00 46 1016.9
20260901154204 22 221 3.2 14.5 0.00 0.00 0.00 45 1017.1
20260901153704 22 243 6.4 14.5 0.00 0.00 0.00 45 1017.2
20260901153204 22 168 3.2 14.5 0.00 0.00 0.00 46 1017.0
20260901152704 22 252 8.0 16.1 0.00 0.00 0.00 45 1017.1
20260901152205 22 207 3.2 16.1 0.00 0.00 0.00 44 1017.2
20260901151204 23 261 4.8 16.1 0.00 0.00 0.00 44 1017.2
20260901150704 22 234 6.4 16.1 0.00 0.00 0.00 44 1017.1
20260901145707 22 228 4.8 22.5 0.00 0.00 0.00 45 1017.1
20260901145204 22 240 6.4 22.5 0.00 0.00 0.00 45 1017.2
20260901143707 23 240 8.0 14.5 0.00 0.00 0.00 43 1017.3
20260901143204 23 230 4.8 16.1 0.00 0.00 0.00 44 1017.3
20260901142738 23 195 6.4 16.1 0.00 0.00 0.00 45 1017.1
20260901142204 23 241 8.0 16.1 0.00 0.00 0.00 46 1017.1
20260901141708 23 203 4.8 11.3 0.00 0.00 0.00 46 1017.2
20260901141208 22 178 3.2 14.5 0.00 0.00 0.00 48 1017.2
20260901140203 22 262 3.2 14.5 0.00 0.00 0.00 50 1017.3
20260901135705 21 173 4.8 16.1 0.00 0.00 0.00 51 1017.4
20260901135204 22 235 6.4 16.1 0.00 0.00 0.00 50 1017.4
20260901134704 22 221 3.2 14.5 0.00 0.00 0.00 50 1017.3
20260901134204 21 209 6.4 14.5 0.00 0.00 0.00 52 1017.4
20260901133705 21 178 4.8 14.5 0.00 0.00 0.00 52 1017.4
20260901133205 21 224 4.8 11.3 0.00 0.00 0.00 51 1017.5
20260901132705 22 173 3.2 11.3 0.00 0.00 0.00 51 1017.5
20260901132204 22 262 3.2 11.3 0.00 0.00 0.00 51 1017.6
20260901131704 22 219 3.2 11.3 0.00 0.00 0.00 50 1017.6
20260901131204 22 176 1.6 9.7 0.00 0.00 0.00 53 1017.4
20260901130704 22 220 1.6 17.7 0.00 0.00 0.00 52 1017.6
20260901130204 22 203 3.2 17.7 0.00 0.00 0.00 50 1017.6
20260901125704 22 155 3.2 17.7 0.00 0.00 0.00 50 1017.6
20260901124704 22 288 4.8 9.7 0.00 0.00 0.00 51 1017.7
20260901124205 21 252 4.8 9.7 0.00 0.00 0.00 51 1017.8
20260901123704 21 223 3.2 9.7 0.00 0.00 0.00 49 1017.7
20260901122705 22 231 3.2 11.3 0.00 0.00 0.00 47 1017.7
20260901122204 22 244 4.8 16.1 0.00 0.00 0.00 47 1017.8
20260901121736 22 134 3.2 16.1 0.00 0.00 0.00 47 1017.9
20260901121204 22 216 4.8 16.1 0.00 0.00 0.00 48 1017.9
20260901120704 22 223 1.6 11.3 0.00 0.00 0.00 46 1017.7
20260901120204 21 230 4.8 11.3 0.00 0.00 0.00 48 1017.9
20260901115705 21 255 3.2 16.1 0.00 0.00 0.00 50 1017.9
20260901115205 21 272 6.4 16.1 0.00 0.00 0.00 49 1017.9
20260901114707 21 237 4.8 16.1 0.00 0.00 0.00 49 1018.0
20260901114204 21 243 8.0 16.1 0.00 0.00 0.00 48 1018.0
20260901113204 21 195 4.8 9.7 0.00 0.00 0.00 48 1018.0
20260901112705 21 178 1.6 11.3 0.00 0.00 0.00 49 1018.0
20260901111704 21 196 3.2 11.3 0.00 0.00 0.00 49 1018.1
20260901111205 21 183 3.2 11.3 0.00 0.00 0.00 50 1018.0
20260901110704 21 219 3.2 11.3 0.00 0.00 0.00 50 1017.9
20260901110204 20 172 3.2 19.3 0.00 0.00 0.00 50 1018.1
20260901105704 20 248 3.2 19.3 0.00 0.00 0.00 50 1018.1
20260901105205 20 157 3.2 19.3 0.00 0.00 0.00 51 1018.0
20260901104704 20 206 8.0 11.3 0.00 0.00 0.00 50 1018.2
20260901104205 20 248 3.2 14.5 0.00 0.00 0.00 51 1018.1
20260901103705 20 183 3.2 14.5 0.00 0.00 0.00 51 1018.2
20260901103204 20 210 4.8 11.3 0.00 0.00 0.00 52 1018.3
20260901102705 20 197 3.2 9.7 0.00 0.00 0.00 53 1018.2
20260901101704 20 183 1.6 9.7 0.00 0.00 0.00 53 1018.4
20260901101204 20 206 3.2 9.7 0.00 0.00 0.00 54 1018.4
20260901100707 20 186 3.2 9.7 0.00 0.00 0.00 56 1018.5
20260901100203 20 124 3.2 9.7 0.00 0.00 0.00 57 1018.6
20260901095704 20 169 3.2 8.0 0.00 0.00 0.00 58 1018.5
20260901095204 19 207 1.6 11.3 0.00 0.00 0.00 59 1018.5
20260901094704 19 224 3.2 14.5 0.00 0.00 0.00 60 1018.7
20260901094205 18 227 6.4 14.5 0.00 0.00 0.00 60 1018.7
20260901093204 18 209 3.2 14.5 0.00 0.00 0.00 61 1018.6
20260901092704 18 183 1.6 14.5 0.00 0.00 0.00 63 1018.6
20260901092205 18 272 4.8 14.5 0.00 0.00 0.00 62 1018.6
20260901091705 18 252 4.8 14.5 0.00 0.00 0.00 64 1018.7
20260901091204 18 254 4.8 8.0 0.00 0.00 0.00 64 1018.6
20260901090207 17 193 1.6 6.4 0.00 0.00 0.00 69 1018.6
20260901085705 17 197 3.2 6.4 0.00 0.00 0.00 70 1018.6
20260901085204 17 237 4.8 4.8 0.00 0.00 0.00 70 1018.6
20260901084204 16 235 1.6 4.8 0.00 0.00 0.00 74 1018.6
20260901083704 16 237 1.6 6.4 0.00 0.00 0.00 74 1018.5
20260901083203 16 237 3.2 6.4 0.00 0.00 0.00 74 1018.5
20260901082730 16 237 0.0 6.4 0.00 0.00 0.00 75 1018.5
20260901082209 16 237 0.0 4.8 0.00 0.00 0.00 77 1018.5
20260901081205 15 237 1.6 6.4 0.00 0.00 0.00 77 1018.6
20260901080710 15 237 1.6 6.4 0.00 0.00 0.00 77 1018.5
20260901080205 15 237 1.6 4.8 0.00 0.00 0.00 78 1018.4
20260901075704 15 237 1.6 6.4 0.00 0.00 0.00 78 1018.4
20260901075205 15 237 1.6 6.4 0.00 0.00 0.00 78 1018.4
20260901074707 15 237 1.6 6.4 0.00 0.00 0.00 78 1018.3
20260901073705 14 237 1.6 4.8 0.00 0.00 0.00 78 1018.2
20260901072705 14 237 1.6 6.4 0.00 0.00 0.00 79 1018.3
20260901072205 14 237 1.6 6.4 0.00 0.00 0.00 78 1018.2
20260901071705 14 237 1.6 3.2 0.00 0.00 0.00 78 1018.2
20260901070705 13 238 0.0 3.2 0.00 0.00 0.00 77 1018.2
20260901070205 13 238 0.0 3.2 0.00 0.00 0.00 77 1018.2
20260901064704 13 238 0.0 1.6 0.00 0.00 0.00 77 1018.0
20260901064203 13 238 0.0 3.2 0.00 0.00 0.00 77 1018.0
20260901063705 13 238 0.0 3.2 0.00 0.00 0.00 77 1018.0
20260901063205 13 238 0.0 3.2 0.00 0.00 0.00 77 1017.9
20260901062705 13 238 0.0 1.6 0.00 0.00 0.00 76 1017.9
20260901062204 13 238 0.0 1.6 0.00 0.00 0.00 76 1017.9
20260901061704 13 238 0.0 1.6 0.00 0.00 0.00 76 1017.9